Weather Roundup
Issued by NWS Chicago, IL

Home | Current Version | Previous Version | Graphics & Text | Print | Product List | Glossary On
Versions: 1 2 3 4 5 6 7 8 9 10 11 12 13 14 15 16 17 18 19 20 21 22 23 24 25 26 27 28 29 30 31 32 33 34 35 36 37 38 39 40 41 42 43 44 45 46 47 48 49 50
000
NZUS59 KLOT 240603
HRRLOT

CHICAGO AREA WEATHER ROUNDUP
NATIONAL WEATHER SERVICE CHICAGO/ROMEOVILLE IL
100 AM CDT SUN JUL 24 2016

NOTE: "FAIR" INDICATES FEW OR NO CLOUDS BELOW 12,000 FEET WITH NO
SIGNIFICANT WEATHER AND/OR OBSTRUCTIONS TO VISIBILITY.

* THESE STATIONS ARE NOT UNDER NWS QUALITY CONTROL. THEY ALSO MAY NOT
  REPORT WEATHER SUCH AS PRECIPITATION OR FOG.

ILZ005-006-012>014-019>023-240700-
NORTHEAST ILLINOIS

CITY           SKY/WX    TMP DP  RH WIND       PRES   REMARKS
OHARE          LGT RAIN  72  70  93 SE12      29.96F
6HR MIN TEMP:  70; 6HR MAX TEMP:  75; 6HR PCP:  1.07;

MIDWAY         TSTM      73  70  90 E13       29.96F
6HR MIN TEMP:  72; 6HR MAX TEMP:  81; 6HR PCP:  1.30;

AURORA         CLOUDY    73  71  93 SE12      29.96S
6HR MIN TEMP:  71; 6HR MAX TEMP:  78; 6HR PCP:  1.13;

LANSING*       TSTM      70  69  96 E6        30.00F
WAUKEGAN       CLOUDY    72  69  90 S14       29.92F
6HR MIN TEMP:  70; 6HR MAX TEMP:  72; 6HR PCP:  0.62;

DUPAGE AIRPORT CLOUDY    71  68  90 SE13      29.95S
6HR MIN TEMP:  71; 6HR MAX TEMP:  74; 6HR PCP:  0.98;

WHEELING       LGT RAIN  72  69  90 SE8       29.95F
6HR MIN TEMP:  69; 6HR MAX TEMP:  74; 6HR PCP:  1.82;

MORRIS*        CLOUDY    72  70  95 E5        29.94F
NORTHERLY ISL    N/A     70  68  93 SE6         N/A
$$

WIZ051-052-058>065-066-070>072-240700-
SOUTHEAST WISCONSIN

CITY           SKY/WX    TMP DP  RH WIND       PRES   REMARKS
MILWAUKEE      TSTM      74  68  81 NW6       29.94R
6HR MIN TEMP:  73; 6HR MAX TEMP:  76; 6HR PCP:  0.23;

KENOSHA*       CLOUDY    72  68  87 S15       29.93F
RACINE*        CLOUDY    73  66  78 S14G22    29.93F
BURLINGTON     CLOUDY    70  69  96 S3        29.92F
WAUKESHA       HVY RAIN  68  68 100 SE9       29.93F
$$

INZ001>003-010>013-019-020-240700-
NORTHWEST INDIANA

CITY           SKY/WX    TMP DP  RH WIND       PRES   REMARKS
GARY*          TSTM      72  72 100 SE3       30.01F
6HR MIN TEMP:  71; 6HR MAX TEMP:  88; 6HR PCP:  0.89;

MICHIGAN CITY* NOT AVBL
RENSSELAER*    NOT AVBL
VALPARAISO     LGT RAIN  70  69  97 W8        30.03F
$$

LMZ740>746-240700-
SOUTHERN LAKE MICHIGAN

STATION/POSITION TIME  SKY/WX   TEMP WIND        PRES    VSBY
                                AIR  DIR/SP/G
                 (UTC)          (F)  (DEG/KT/KT) (MB)    (MI)
HARRISON CRIB    0520            71  190/ 16/ 17   N/A
BURNHAM HARBOR   0600            70  140/  7/ 10   N/A
CALUMET HARBOR   0500            70  220/  3/  8 1015.9R
BURNS HARBOR     0502            71  210/ 13     1016.9R
MICHIGAN CITY    0500            71                N/A
$$

ABBREVIATIONS USED IN REMARKS
   TC - TEMPERATURE IN CELSIUS
  WCI - WIND CHILL INDEX
   HX - HEAT INDEX
  VSB - VISIBILITY
$$



USA.gov is the U.S. government's official web portal to all federal, state and local government web resources and services.